| time (UTC) | temp C | wind direction | speed KPH | gust KPH | rain 1hr cm | rain 24hr cm | rain mn cm | humidity % | barometer mb |
| 20260506024507 | 23 | 18 | 3.2 | 9.7 | 0.00 | 0.05 | 0.05 | 67 | 1008.0 |
| 20260506024002 | 23 | 315 | 4.8 | 12.9 | 0.00 | 0.05 | 0.05 | 67 | 1007.7 |
| 20260506023459 | 23 | 311 | 9.7 | 20.9 | 0.00 | 0.05 | 0.05 | 67 | 1007.9 |
| 20260506022956 | 23 | 349 | 9.7 | 16.1 | 0.00 | 0.05 | 0.05 | 67 | 1007.2 |
| 20260506022454 | 23 | 344 | 3.2 | 14.5 | 0.00 | 0.05 | 0.05 | 67 | 1007.2 |
| 20260506021951 | 23 | 28 | 8.0 | 12.9 | 0.00 | 0.05 | 0.05 | 67 | 1007.1 |
| 20260506021449 | 23 | 33 | 4.8 | 12.9 | 0.00 | 0.05 | 0.05 | 67 | 1006.7 |
| 20260506020946 | 23 | 25 | 6.4 | 16.1 | 0.00 | 0.05 | 0.05 | 67 | 1006.9 |
| 20260506020443 | 24 | 16 | 3.2 | 8.0 | 0.00 | 0.05 | 0.05 | 67 | 1006.8 |
| 20260506015940 | 24 | 341 | 3.2 | 11.3 | 0.00 | 0.05 | 0.05 | 67 | 1006.7 |
| 20260506015438 | 24 | 289 | 8.0 | 12.9 | 0.00 | 0.05 | 0.05 | 67 | 1006.5 |
| 20260506014934 | 25 | 339 | 6.4 | 12.9 | 0.00 | 0.05 | 0.05 | 68 | 1006.5 |
| 20260506014431 | 25 | 3 | 4.8 | 9.7 | 0.00 | 0.05 | 0.05 | 68 | 1006.6 |
| 20260506013928 | 25 | 330 | 4.8 | 8.0 | 0.00 | 0.05 | 0.05 | 67 | 1006.4 |
| 20260506013426 | 25 | 2 | 1.6 | 11.3 | 0.00 | 0.05 | 0.05 | 67 | 1006.0 |
| 20260506012922 | 25 | 335 | 8.0 | 11.3 | 0.00 | 0.05 | 0.05 | 67 | 1006.0 |
| 20260506012418 | 25 | 319 | 16.1 | 22.5 | 0.00 | 0.05 | 0.05 | 67 | 1006.2 |
| 20260506011916 | 25 | 272 | 4.8 | 12.9 | 0.00 | 0.05 | 0.05 | 66 | 1006.2 |
| 20260506011413 | 26 | 341 | 6.4 | 16.1 | 0.00 | 0.05 | 0.05 | 66 | 1006.2 |
| 20260506010910 | 26 | 343 | 8.0 | 12.9 | 0.00 | 0.05 | 0.05 | 67 | 1006.0 |
| 20260506010408 | 26 | 343 | 4.8 | 4.8 | 0.00 | 0.05 | 0.05 | 67 | 1006.1 |
| 20260506005904 | 26 | 352 | 1.6 | 3.2 | 0.00 | 0.05 | 0.05 | 67 | 1005.7 |
| 20260506005402 | 26 | 334 | 9.7 | 12.9 | 0.00 | 0.05 | 0.05 | 67 | 1005.6 |
| 20260506004857 | 26 | 9 | 3.2 | 11.3 | 0.00 | 0.05 | 0.05 | 69 | 1005.3 |
| 20260506004355 | 25 | 348 | 4.8 | 14.5 | 0.00 | 0.05 | 0.05 | 69 | 1005.4 |
| 20260506003851 | 26 | 343 | 4.8 | 8.0 | 0.00 | 0.05 | 0.05 | 71 | 1005.4 |
| 20260506003347 | 26 | 12 | 4.8 | 11.3 | 0.00 | 0.05 | 0.05 | 71 | 1005.6 |
| 20260506002844 | 26 | 348 | 8.0 | 12.9 | 0.00 | 0.05 | 0.05 | 71 | 1005.6 |
| 20260506002340 | 25 | 3 | 1.6 | 3.2 | 0.00 | 0.05 | 0.05 | 74 | 1005.9 |
| 20260506001836 | 25 | 340 | 4.8 | 8.0 | 0.00 | 0.05 | 0.05 | 72 | 1005.6 |
| 20260506001333 | 25 | 318 | 6.4 | 11.3 | 0.13 | 0.05 | 0.05 | 72 | 1005.6 |
| 20260506000830 | 26 | 8 | 14.5 | 20.9 | 0.30 | 0.05 | 0.05 | 68 | 1005.6 |
| 20260506000330 | 29 | 300 | 4.8 | 9.7 | 0.00 | 0.00 | 0.00 | 59 | 1005.1 |
| 20260505235825 | 28 | 342 | 9.7 | 17.7 | 0.00 | 0.00 | 0.00 | 60 | 1005.0 |
| 20260505235322 | 28 | 302 | 8.0 | 16.1 | 0.00 | 0.00 | 0.00 | 70 | 1004.6 |
| 20260505234819 | 28 | 294 | 4.8 | 11.3 | 0.00 | 0.00 | 0.00 | 69 | 1004.5 |
| 20260505234317 | 29 | 209 | 8.0 | 14.5 | 0.00 | 0.00 | 0.00 | 69 | 1004.2 |
| 20260505233813 | 29 | 235 | 8.0 | 22.5 | 0.00 | 0.00 | 0.00 | 69 | 1004.3 |
| 20260505233311 | 30 | 193 | 14.5 | 14.5 | 0.00 | 0.00 | 0.00 | 68 | 1004.8 |
| 20260505232808 | 30 | 184 | 12.9 | 16.1 | 0.00 | 0.00 | 0.00 | 68 | 1004.5 |
| 20260505232306 | 30 | 188 | 12.9 | 20.9 | 0.00 | 0.00 | 0.00 | 67 | 1004.3 |
| 20260505231802 | 30 | 174 | 11.3 | 20.9 | 0.00 | 0.00 | 0.00 | 66 | 1004.4 |
| 20260505231301 | 30 | 176 | 8.0 | 11.3 | 0.00 | 0.00 | 0.00 | 64 | 1004.4 |
| 20260505230758 | 30 | 134 | 11.3 | 17.7 | 0.00 | 0.00 | 0.00 | 65 | 1004.3 |
| 20260505230255 | 31 | 174 | 14.5 | 20.9 | 0.00 | 0.00 | 0.00 | 63 | 1004.4 |
| 20260505225752 | 31 | 184 | 8.0 | 20.9 | 0.00 | 0.00 | 0.00 | 62 | 1004.3 |
| 20260505225249 | 31 | 146 | 8.0 | 16.1 | 0.00 | 0.00 | 0.00 | 61 | 1004.1 |
| 20260505224744 | 31 | 178 | 9.7 | 16.1 | 0.00 | 0.00 | 0.00 | 60 | 1003.9 |
| 20260505224242 | 31 | 191 | 8.0 | 14.5 | 0.00 | 0.00 | 0.00 | 61 | 1004.0 |
| 20260505223739 | 31 | 195 | 8.0 | 16.1 | 0.00 | 0.00 | 0.00 | 61 | 1003.9 |
| 20260505223235 | 31 | 171 | 11.3 | 16.1 | 0.00 | 0.00 | 0.00 | 62 | 1004.0 |
| 20260505222731 | 32 | 145 | 11.3 | 22.5 | 0.00 | 0.00 | 0.00 | 60 | 1004.0 |
| 20260505222228 | 31 | 223 | 4.8 | 14.5 | 0.00 | 0.00 | 0.00 | 60 | 1004.0 |
| 20260505221725 | 32 | 177 | 12.9 | 14.5 | 0.00 | 0.00 | 0.00 | 56 | 1004.0 |
| 20260505221221 | 32 | 237 | 8.0 | 11.3 | 0.00 | 0.00 | 0.00 | 56 | 1004.0 |
| 20260505220718 | 31 | 237 | 11.3 | 22.5 | 0.00 | 0.00 | 0.00 | 56 | 1004.0 |
| 20260505220216 | 32 | 235 | 8.0 | 17.7 | 0.00 | 0.00 | 0.00 | 56 | 1003.9 |
| 20260505215714 | 31 | 47 | 4.8 | 11.3 | 0.00 | 0.00 | 0.00 | 57 | 1004.1 |
| 20260505215212 | 32 | 232 | 8.0 | 20.9 | 0.00 | 0.00 | 0.00 | 56 | 1004.1 |
| 20260505214709 | 31 | 229 | 9.7 | 20.9 | 0.00 | 0.00 | 0.00 | 54 | 1003.9 |
| 20260505214207 | 32 | 267 | 9.7 | 12.9 | 0.00 | 0.00 | 0.00 | 56 | 1004.0 |
| 20260505213704 | 31 | 286 | 8.0 | 9.7 | 0.00 | 0.00 | 0.00 | 54 | 1004.1 |
| 20260505213201 | 32 | 298 | 6.4 | 22.5 | 0.00 | 0.00 | 0.00 | 54 | 1004.3 |
| 20260505212656 | 31 | 282 | 9.7 | 16.1 | 0.00 | 0.00 | 0.00 | 54 | 1004.4 |
| 20260505212154 | 31 | 259 | 4.8 | 14.5 | 0.00 | 0.00 | 0.00 | 53 | 1004.2 |
| 20260505211651 | 32 | 214 | 9.7 | 12.9 | 0.00 | 0.00 | 0.00 | 53 | 1004.5 |
| 20260505211148 | 31 | 205 | 9.7 | 22.5 | 0.00 | 0.00 | 0.00 | 53 | 1004.4 |
| 20260505210645 | 31 | 237 | 8.0 | 22.5 | 0.00 | 0.00 | 0.00 | 54 | 1004.3 |
| 20260505210142 | 31 | 271 | 14.5 | 17.7 | 0.00 | 0.00 | 0.00 | 53 | 1004.6 |
| 20260505205639 | 31 | 223 | 11.3 | 14.5 | 0.00 | 0.00 | 0.00 | 56 | 1004.6 |
| 20260505205137 | 31 | 180 | 8.0 | 12.9 | 0.00 | 0.00 | 0.00 | 55 | 1004.4 |
| 20260505204633 | 31 | 246 | 9.7 | 17.7 | 0.00 | 0.00 | 0.00 | 55 | 1004.8 |
| 20260505204132 | 31 | 258 | 11.3 | 22.5 | 0.00 | 0.00 | 0.00 | 57 | 1005.0 |
| 20260505203628 | 31 | 217 | 17.7 | 22.5 | 0.00 | 0.00 | 0.00 | 56 | 1004.8 |
| 20260505203125 | 31 | 250 | 14.5 | 20.9 | 0.00 | 0.00 | 0.00 | 56 | 1004.7 |
| 20260505202621 | 31 | 218 | 8.0 | 14.5 | 0.00 | 0.00 | 0.00 | 54 | 1004.9 |
| 20260505202117 | 31 | 240 | 14.5 | 24.1 | 0.00 | 0.00 | 0.00 | 56 | 1004.9 |
| 20260505201613 | 31 | 250 | 16.1 | 29.0 | 0.00 | 0.00 | 0.00 | 57 | 1004.9 |
| 20260505201111 | 30 | 220 | 14.5 | 17.7 | 0.00 | 0.00 | 0.00 | 57 | 1005.2 |
| 20260505200609 | 31 | 240 | 14.5 | 25.7 | 0.00 | 0.00 | 0.00 | 58 | 1004.9 |
| 20260505200106 | 31 | 236 | 19.3 | 27.4 | 0.00 | 0.00 | 0.00 | 59 | 1005.0 |
| 20260505195602 | 30 | 241 | 12.9 | 25.7 | 0.00 | 0.00 | 0.00 | 60 | 1005.1 |
| 20260505195100 | 30 | 208 | 16.1 | 22.5 | 0.00 | 0.00 | 0.00 | 62 | 1004.9 |
| 20260505194556 | 30 | 260 | 12.9 | 20.9 | 0.00 | 0.00 | 0.00 | 61 | 1005.1 |
| 20260505194052 | 30 | 212 | 14.5 | 25.7 | 0.00 | 0.00 | 0.00 | 62 | 1005.3 |
| 20260505193549 | 29 | 253 | 4.8 | 25.7 | 0.00 | 0.00 | 0.00 | 63 | 1005.3 |
| 20260505193047 | 30 | 263 | 20.9 | 29.0 | 0.00 | 0.00 | 0.00 | 61 | 1005.3 |
| 20260505192545 | 30 | 183 | 11.3 | 16.1 | 0.00 | 0.00 | 0.00 | 62 | 1005.2 |
| 20260505192042 | 30 | 169 | 11.3 | 22.5 | 0.00 | 0.00 | 0.00 | 62 | 1005.2 |
| 20260505191540 | 29 | 235 | 9.7 | 14.5 | 0.00 | 0.00 | 0.00 | 63 | 1005.2 |
| 20260505191038 | 29 | 195 | 11.3 | 16.1 | 0.00 | 0.00 | 0.00 | 63 | 1005.3 |
| 20260505190532 | 29 | 195 | 19.3 | 24.1 | 0.00 | 0.00 | 0.00 | 65 | 1005.2 |
| 20260505190029 | 29 | 238 | 11.3 | 17.7 | 0.00 | 0.00 | 0.00 | 64 | 1005.3 |
| 20260505185526 | 29 | 230 | 17.7 | 24.1 | 0.00 | 0.00 | 0.00 | 65 | 1005.7 |
| 20260505185022 | 28 | 244 | 9.7 | 17.7 | 0.00 | 0.00 | 0.00 | 66 | 1005.6 |
| 20260505184519 | 28 | 235 | 12.9 | 22.5 | 0.00 | 0.00 | 0.00 | 66 | 1005.7 |
| 20260505184016 | 28 | 175 | 19.3 | 24.1 | 0.00 | 0.00 | 0.00 | 66 | 1005.6 |
| 20260505183513 | 28 | 205 | 16.1 | 22.5 | 0.00 | 0.00 | 0.00 | 67 | 1005.9 |
| 20260505183010 | 28 | 218 | 19.3 | 22.5 | 0.00 | 0.00 | 0.00 | 68 | 1005.8 |
| 20260505182506 | 27 | 206 | 19.3 | 25.7 | 0.00 | 0.00 | 0.00 | 68 | 1005.8 |
| 20260505182003 | 28 | 204 | 12.9 | 17.7 | 0.00 | 0.00 | 0.00 | 68 | 1005.9 |
| 20260505181459 | 28 | 245 | 11.3 | 17.7 | 0.00 | 0.00 | 0.00 | 68 | 1005.9 |
| 20260505180956 | 28 | 212 | 14.5 | 24.1 | 0.00 | 0.00 | 0.00 | 68 | 1005.8 |
| 20260505180452 | 27 | 211 | 14.5 | 24.1 | 0.00 | 0.00 | 0.00 | 69 | 1006.0 |
| 20260505175949 | 27 | 193 | 12.9 | 22.5 | 0.00 | 0.00 | 0.00 | 69 | 1005.9 |
| 20260505175445 | 27 | 167 | 14.5 | 25.7 | 0.00 | 0.00 | 0.00 | 70 | 1005.8 |
| 20260505174942 | 27 | 202 | 9.7 | 17.7 | 0.00 | 0.00 | 0.00 | 70 | 1005.8 |
| 20260505174439 | 27 | 187 | 14.5 | 24.1 | 0.00 | 0.00 | 0.00 | 71 | 1005.9 |
| 20260505173936 | 27 | 204 | 17.7 | 25.7 | 0.00 | 0.00 | 0.00 | 71 | 1005.9 |
| 20260505173432 | 27 | 210 | 14.5 | 20.9 | 0.00 | 0.00 | 0.00 | 69 | 1006.1 |
| 20260505172929 | 27 | 191 | 12.9 | 25.7 | 0.00 | 0.00 | 0.00 | 70 | 1006.0 |
| 20260505172428 | 27 | 265 | 17.7 | 29.0 | 0.00 | 0.00 | 0.00 | 70 | 1006.0 |
| 20260505171926 | 27 | 249 | 11.3 | 25.7 | 0.00 | 0.00 | 0.00 | 70 | 1006.0 |
| 20260505171424 | 27 | 251 | 11.3 | 14.5 | 0.00 | 0.00 | 0.00 | 69 | 1005.8 |
| 20260505170920 | 27 | 212 | 12.9 | 20.9 | 0.00 | 0.00 | 0.00 | 69 | 1005.9 |
| 20260505170417 | 27 | 212 | 24.1 | 29.0 | 0.00 | 0.00 | 0.00 | 70 | 1006.1 |
| 20260505165913 | 26 | 236 | 16.1 | 22.5 | 0.00 | 0.00 | 0.00 | 70 | 1006.1 |
| 20260505165409 | 26 | 230 | 19.3 | 24.1 | 0.00 | 0.00 | 0.00 | 70 | 1006.1 |
| 20260505164904 | 26 | 203 | 17.7 | 24.1 | 0.00 | 0.00 | 0.00 | 71 | 1006.1 |
| 20260505164401 | 26 | 219 | 8.0 | 14.5 | 0.00 | 0.00 | 0.00 | 72 | 1006.0 |
| 20260505163859 | 26 | 194 | 12.9 | 20.9 | 0.00 | 0.00 | 0.00 | 72 | 1006.1 |
| 20260505163358 | 26 | 207 | 19.3 | 33.8 | 0.00 | 0.00 | 0.00 | 72 | 1006.1 |
| 20260505162856 | 25 | 192 | 16.1 | 24.1 | 0.00 | 0.00 | 0.00 | 74 | 1005.9 |
| 20260505162352 | 25 | 224 | 24.1 | 33.8 | 0.00 | 0.00 | 0.00 | 74 | 1005.8 |
| 20260505161849 | 25 | 230 | 11.3 | 29.0 | 0.00 | 0.00 | 0.00 | 74 | 1005.9 |
| 20260505161346 | 25 | 207 | 20.9 | 24.1 | 0.00 | 0.00 | 0.00 | 72 | 1005.8 |
| 20260505160843 | 26 | 221 | 20.9 | 25.7 | 0.00 | 0.00 | 0.00 | 72 | 1005.7 |
| 20260505160341 | 25 | 213 | 14.5 | 32.2 | 0.00 | 0.00 | 0.00 | 73 | 1005.6 |
| 20260505153320 | 25 | 239 | 16.1 | 27.4 | 0.00 | 0.00 | 0.00 | 75 | 1006.0 |
| 20260505152817 | 25 | 245 | 16.1 | 25.7 | 0.00 | 0.00 | 0.00 | 76 | 1005.9 |
| 20260505152314 | 25 | 208 | 19.3 | 29.0 | 0.00 | 0.00 | 0.00 | 76 | 1006.1 |
| 20260505151808 | 25 | 182 | 11.3 | 25.7 | 0.00 | 0.00 | 0.00 | 76 | 1006.2 |
| 20260505151305 | 24 | 228 | 6.4 | 24.1 | 0.00 | 0.00 | 0.00 | 77 | 1006.4 |
| 20260505150802 | 24 | 190 | 20.9 | 25.7 | 0.00 | 0.00 | 0.00 | 77 | 1006.2 |
| 20260505150259 | 24 | 241 | 17.7 | 22.5 | 0.00 | 0.00 | 0.00 | 77 | 1006.3 |
| 20260505140224 | 23 | 228 | 12.9 | 14.5 | 0.00 | 0.00 | 0.00 | 81 | 1006.2 |
| 20260505130147 | 22 | 237 | 9.7 | 12.9 | 0.00 | 0.00 | 0.00 | 84 | 1005.3 |
| 20260505124637 | 22 | 229 | 14.5 | 20.9 | 0.00 | 0.00 | 0.00 | 84 | 1005.6 |
| 20260505124134 | 22 | 208 | 4.8 | 16.1 | 0.00 | 0.00 | 0.00 | 84 | 1005.7 |
| 20260505123630 | 22 | 181 | 11.3 | 14.5 | 0.00 | 0.00 | 0.00 | 84 | 1005.3 |
| 20260505123127 | 21 | 229 | 14.5 | 17.7 | 0.00 | 0.00 | 0.00 | 85 | 1005.3 |
| 20260505122623 | 21 | 173 | 11.3 | 20.9 | 0.00 | 0.00 | 0.00 | 85 | 1005.0 |
| 20260505122120 | 21 | 170 | 8.0 | 24.1 | 0.00 | 0.00 | 0.00 | 85 | 1005.0 |
| 20260505121611 | 21 | 238 | 9.7 | 11.3 | 0.00 | 0.00 | 0.00 | 85 | 1004.8 |
| 20260505121108 | 21 | 165 | 8.0 | 17.7 | 0.00 | 0.00 | 0.00 | 85 | 1005.0 |
| 20260505120604 | 21 | 201 | 11.3 | 16.1 | 0.00 | 0.00 | 0.00 | 85 | 1004.9 |
| 20260505120100 | 21 | 192 | 11.3 | 16.1 | 0.00 | 0.00 | 0.00 | 85 | 1005.2 |
| 20260505115554 | 21 | 236 | 8.0 | 11.3 | 0.00 | 0.00 | 0.00 | 85 | 1005.0 |
| 20260505115052 | 21 | 157 | 17.7 | 22.5 | 0.00 | 0.00 | 0.00 | 85 | 1004.8 |
| 20260505114549 | 21 | 191 | 11.3 | 14.5 | 0.00 | 0.00 | 0.00 | 85 | 1004.9 |
| 20260505114045 | 21 | 209 | 8.0 | 16.1 | 0.00 | 0.00 | 0.00 | 85 | 1004.9 |
| 20260505113542 | 21 | 172 | 9.7 | 17.7 | 0.00 | 0.00 | 0.00 | 85 | 1005.1 |
| 20260505113038 | 21 | 205 | 11.3 | 17.7 | 0.00 | 0.00 | 0.00 | 85 | 1005.0 |
| 20260505112534 | 21 | 195 | 8.0 | 14.5 | 0.00 | 0.00 | 0.00 | 85 | 1005.0 |
| 20260505112033 | 21 | 140 | 9.7 | 12.9 | 0.00 | 0.00 | 0.00 | 85 | 1004.9 |
| 20260505111526 | 21 | 211 | 9.7 | 14.5 | 0.00 | 0.00 | 0.00 | 85 | 1004.9 |
| 20260505111022 | 21 | 210 | 14.5 | 20.9 | 0.00 | 0.00 | 0.00 | 85 | 1005.0 |
| 20260505110514 | 21 | 206 | 11.3 | 16.1 | 0.00 | 0.00 | 0.00 | 85 | 1005.0 |
| 20260505101946 | 21 | 195 | 11.3 | 20.9 | 0.00 | 0.00 | 0.00 | 85 | 1004.9 |
| 20260505101444 | 21 | 197 | 6.4 | 16.1 | 0.00 | 0.00 | 0.00 | 85 | 1005.0 |
| 20260505100940 | 21 | 211 | 9.7 | 14.5 | 0.00 | 0.00 | 0.00 | 84 | 1005.0 |
| 20260505100438 | 21 | 197 | 17.7 | 22.5 | 0.00 | 0.00 | 0.00 | 84 | 1004.9 |
| 20260505095933 | 21 | 213 | 9.7 | 14.5 | 0.00 | 0.00 | 0.00 | 84 | 1005.1 |
| 20260505095430 | 21 | 223 | 11.3 | 12.9 | 0.00 | 0.00 | 0.00 | 84 | 1005.1 |
| 20260505094926 | 21 | 218 | 11.3 | 20.9 | 0.00 | 0.00 | 0.00 | 84 | 1005.0 |
| 20260505094424 | 21 | 165 | 11.3 | 20.9 | 0.00 | 0.00 | 0.00 | 84 | 1005.1 |
| 20260505093920 | 21 | 199 | 20.9 | 25.7 | 0.00 | 0.00 | 0.00 | 84 | 1005.0 |
| 20260505093416 | 21 | 200 | 8.0 | 22.5 | 0.00 | 0.00 | 0.00 | 84 | 1005.1 |
| 20260505092914 | 21 | 201 | 12.9 | 16.1 | 0.00 | 0.00 | 0.00 | 84 | 1005.1 |
| 20260505092412 | 21 | 217 | 17.7 | 24.1 | 0.00 | 0.00 | 0.00 | 84 | 1005.4 |
| 20260505091909 | 21 | 174 | 9.7 | 16.1 | 0.00 | 0.00 | 0.00 | 84 | 1005.3 |
| 20260505091406 | 21 | 186 | 16.1 | 33.8 | 0.00 | 0.00 | 0.00 | 84 | 1005.3 |
| 20260505090904 | 21 | 187 | 14.5 | 24.1 | 0.00 | 0.00 | 0.00 | 84 | 1005.3 |
| 20260505090402 | 21 | 174 | 11.3 | 22.5 | 0.00 | 0.00 | 0.00 | 85 | 1005.4 |
| 20260505085859 | 21 | 209 | 6.4 | 12.9 | 0.00 | 0.00 | 0.00 | 84 | 1005.3 |
| 20260505085357 | 21 | 215 | 9.7 | 14.5 | 0.00 | 0.00 | 0.00 | 85 | 1005.6 |
| 20260505084855 | 21 | 230 | 17.7 | 24.1 | 0.00 | 0.00 | 0.00 | 84 | 1005.3 |
| 20260505084353 | 21 | 205 | 16.1 | 20.9 | 0.00 | 0.00 | 0.00 | 84 | 1005.1 |
| 20260505083850 | 21 | 211 | 11.3 | 22.5 | 0.00 | 0.00 | 0.00 | 85 | 1005.4 |
| 20260505083348 | 21 | 163 | 8.0 | 16.1 | 0.00 | 0.00 | 0.00 | 85 | 1005.3 |
| 20260505082844 | 21 | 236 | 8.0 | 20.9 | 0.00 | 0.00 | 0.00 | 85 | 1005.4 |
| 20260505082340 | 21 | 212 | 9.7 | 20.9 | 0.00 | 0.00 | 0.00 | 84 | 1005.7 |
| 20260505081837 | 21 | 179 | 11.3 | 24.1 | 0.00 | 0.00 | 0.00 | 84 | 1005.6 |
| 20260505081333 | 21 | 209 | 11.3 | 14.5 | 0.00 | 0.00 | 0.00 | 84 | 1005.6 |
| 20260505080830 | 21 | 196 | 19.3 | 24.1 | 0.00 | 0.00 | 0.00 | 84 | 1005.7 |
| 20260505080326 | 21 | 200 | 17.7 | 24.1 | 0.00 | 0.00 | 0.00 | 84 | 1005.9 |
| 20260505075822 | 21 | 188 | 16.1 | 20.9 | 0.00 | 0.00 | 0.00 | 84 | 1005.6 |
| 20260505075319 | 21 | 181 | 4.8 | 12.9 | 0.00 | 0.00 | 0.00 | 84 | 1005.7 |
| 20260505074816 | 21 | 166 | 9.7 | 24.1 | 0.00 | 0.00 | 0.00 | 84 | 1005.8 |
| 20260505074313 | 21 | 106 | 4.8 | 17.7 | 0.00 | 0.00 | 0.00 | 83 | 1006.2 |
| 20260505073811 | 21 | 204 | 14.5 | 24.1 | 0.00 | 0.00 | 0.00 | 83 | 1005.9 |
| 20260505073309 | 21 | 180 | 11.3 | 16.1 | 0.00 | 0.00 | 0.00 | 83 | 1006.0 |
| 20260505072805 | 21 | 201 | 22.5 | 32.2 | 0.00 | 0.00 | 0.00 | 83 | 1006.6 |
| 20260505072301 | 21 | 216 | 9.7 | 20.9 | 0.00 | 0.00 | 0.00 | 82 | 1006.4 |
| 20260505071757 | 22 | 206 | 16.1 | 24.1 | 0.00 | 0.00 | 0.00 | 82 | 1006.2 |
| 20260505071254 | 22 | 158 | 24.1 | 29.0 | 0.00 | 0.00 | 0.00 | 81 | 1006.6 |
| 20260505070752 | 22 | 175 | 8.0 | 14.5 | 0.00 | 0.00 | 0.00 | 81 | 1006.6 |
| 20260505070248 | 22 | 226 | 9.7 | 12.9 | 0.00 | 0.00 | 0.00 | 81 | 1006.4 |
| 20260505065743 | 22 | 191 | 12.9 | 14.5 | 0.00 | 0.00 | 0.00 | 81 | 1006.5 |
| 20260505065240 | 22 | 184 | 11.3 | 20.9 | 0.00 | 0.00 | 0.00 | 80 | 1006.5 |
| 20260505064737 | 22 | 186 | 19.3 | 22.5 | 0.00 | 0.00 | 0.00 | 80 | 1006.7 |
| 20260505064235 | 22 | 194 | 14.5 | 17.7 | 0.00 | 0.00 | 0.00 | 80 | 1006.6 |
| 20260505063732 | 22 | 182 | 8.0 | 12.9 | 0.00 | 0.00 | 0.00 | 79 | 1006.8 |
| 20260505063229 | 22 | 167 | 8.0 | 16.1 | 0.00 | 0.00 | 0.00 | 79 | 1006.8 |
| 20260505062725 | 22 | 182 | 14.5 | 20.9 | 0.00 | 0.00 | 0.00 | 79 | 1006.9 |
| 20260505062223 | 22 | 214 | 9.7 | 17.7 | 0.00 | 0.00 | 0.00 | 79 | 1006.7 |
| 20260505061719 | 22 | 198 | 12.9 | 20.9 | 0.00 | 0.00 | 0.00 | 78 | 1006.8 |
| 20260505061218 | 22 | 195 | 9.7 | 17.7 | 0.00 | 0.00 | 0.00 | 78 | 1006.8 |
| 20260505060715 | 22 | 179 | 9.7 | 12.9 | 0.00 | 0.00 | 0.00 | 78 | 1006.8 |
| 20260505060211 | 22 | 196 | 22.5 | 29.0 | 0.00 | 0.00 | 0.00 | 77 | 1007.0 |
| 20260505055707 | 22 | 142 | 9.7 | 12.9 | 0.00 | 0.00 | 0.00 | 77 | 1006.7 |
| 20260505055203 | 22 | 90 | 8.0 | 16.1 | 0.00 | 0.00 | 0.00 | 77 | 1006.8 |
| 20260505054701 | 22 | 185 | 11.3 | 16.1 | 0.00 | 0.00 | 0.00 | 77 | 1006.8 |
| 20260505054159 | 22 | 154 | 12.9 | 17.7 | 0.00 | 0.00 | 0.00 | 77 | 1006.8 |
| 20260505053656 | 22 | 155 | 8.0 | 11.3 | 0.00 | 0.00 | 0.00 | 77 | 1006.9 |
| 20260505053153 | 22 | 231 | 11.3 | 16.1 | 0.00 | 0.00 | 0.00 | 77 | 1006.8 |
| 20260505052650 | 22 | 139 | 9.7 | 14.5 | 0.00 | 0.00 | 0.00 | 77 | 1007.0 |
| 20260505052147 | 22 | 200 | 8.0 | 14.5 | 0.00 | 0.00 | 0.00 | 76 | 1006.9 |
| 20260505051643 | 22 | 185 | 8.0 | 11.3 | 0.00 | 0.00 | 0.00 | 76 | 1007.0 |
| 20260505051142 | 22 | 151 | 11.3 | 20.9 | 0.00 | 0.00 | 0.00 | 76 | 1007.2 |
| 20260505050639 | 22 | 159 | 8.0 | 14.5 | 0.00 | 0.00 | 0.00 | 76 | 1007.0 |
| 20260505050138 | 22 | 187 | 12.9 | 16.1 | 0.00 | 0.00 | 0.00 | 76 | 1007.2 |
| 20260505041607 | 22 | 157 | 8.0 | 14.5 | 0.00 | 0.00 | 0.00 | 74 | 1007.5 |
| 20260505041105 | 22 | 209 | 6.4 | 11.3 | 0.00 | 0.00 | 0.00 | 74 | 1007.3 |
| 20260505040602 | 23 | 156 | 11.3 | 14.5 | 0.00 | 0.00 | 0.00 | 74 | 1007.2 |
| 20260505040059 | 23 | 183 | 9.7 | 16.1 | 0.00 | 0.00 | 0.00 | 73 | 1007.6 |
| 20260505035555 | 23 | 138 | 14.5 | 22.5 | 0.00 | 0.00 | 0.00 | 73 | 1007.4 |
| 20260505035051 | 23 | 180 | 11.3 | 20.9 | 0.00 | 0.00 | 0.00 | 73 | 1007.1 |
| 20260505034548 | 23 | 155 | 12.9 | 16.1 | 0.00 | 0.00 | 0.00 | 73 | 1007.3 |
| 20260505034045 | 23 | 135 | 11.3 | 16.1 | 0.00 | 0.00 | 0.00 | 72 | 1007.1 |
| 20260505033542 | 23 | 132 | 8.0 | 12.9 | 0.00 | 0.00 | 0.00 | 72 | 1007.1 |
| 20260505033040 | 23 | 153 | 8.0 | 16.1 | 0.00 | 0.00 | 0.00 | 72 | 1007.1 |
| 20260505032538 | 23 | 264 | 6.4 | 14.5 | 0.00 | 0.00 | 0.00 | 71 | 1007.4 |
| 20260505032034 | 23 | 179 | 8.0 | 17.7 | 0.00 | 0.00 | 0.00 | 71 | 1007.2 |
| 20260505031531 | 23 | 142 | 8.0 | 16.1 | 0.00 | 0.00 | 0.00 | 71 | 1007.3 |
| 20260505031027 | 23 | 87 | 4.8 | 12.9 | 0.00 | 0.00 | 0.00 | 71 | 1007.4 |
| 20260505030525 | 23 | 127 | 6.4 | 17.7 | 0.00 | 0.00 | 0.00 | 70 | 1007.5 |
| 20260505030021 | 23 | 125 | 6.4 | 12.9 | 0.00 | 0.00 | 0.00 | 70 | 1007.5 |
| 20260505025516 | 23 | 164 | 9.7 | 20.9 | 0.00 | 0.00 | 0.00 | 70 | 1007.5 |
| 20260505025016 | 23 | 116 | 6.4 | 17.7 | 0.00 | 0.00 | 0.00 | 70 | 1007.2 |